[[{"header":{"parameterUnit":"m.s-1","parameterCategory":1,"la1":30.2991,"la2":30.254,"lo1":-89.0895,"lo2":-89.0444,"dy":0.0017,"dx":0.0017,"nx":28,"ny":28,"refTime":"2025-07-23T03:00:00:Z","depth":0,"parameterNumber":2,"parameterNumberName":"U-component_of_WINDS"},"data":[0,0,0,0,0,0,0,0,0,0,0,0,0,0,0,0,0,0,0,0,0,0,0,0,0,0,0,0,0,0,0,0,0,0,0,0,0,0,0,0,0,0,0,0,0,0,0,0,0,0,0,0,0,0,0,0,0,0,2.9215,2.9216,0,2.9298,2.9299,2.93,2.92,2.9197,2.9193,2.919,2.9273,2.9278,2.9284,0,0,0,0,0,0,0,0,0,0,0,0,0,2.8974,2.8978,2.9215,2.9216,2.9217,2.9298,2.9299,2.93,2.9201,2.9197,2.9192,2.9188,2.9271,2.9277,2.9284,0,0,0,0,0,0,0,0,0,0,0,0,0,2.907,2.898,2.9215,2.9177,2.9175,2.9297,2.9299,2.93,2.9202,2.9197,2.9191,2.9186,2.9269,2.9277,2.9285,2.9448,0,0,2.9311,2.9315,0,0,0,0,0,0,0,0,2.9064,2.9079,2.9182,2.918,2.9178,2.9233,2.9244,2.935,2.9203,2.9192,2.919,2.9183,2.9264,2.9272,2.93,2.9452,2.9455,2.9312,2.9317,2.9321,2.9323,0,0,0,0,0,0,0,2.9058,2.9074,2.9247,2.9183,2.9181,2.9157,2.9165,2.9264,2.9258,2.9192,2.9185,2.9197,2.9262,2.9292,2.9301,2.9456,2.9312,2.9319,2.9324,2.9328,2.9751,2.9757,0,0,0,0,0,0,2.9055,2.907,2.9245,2.925,2.9106,2.9166,2.9175,2.9221,2.9256,2.9256,2.9201,2.9192,2.928,2.9291,2.9304,2.95,2.932,2.9328,2.9333,2.9745,2.9753,2.976,0,0,0,0,0,0,2.9051,2.9072,2.9241,2.9158,2.9178,2.9176,2.9229,2.9225,2.9256,2.9263,2.9261,2.9233,2.9276,2.9292,2.9414,2.9502,2.9332,2.934,2.9738,2.9748,2.9756,2.9892,0,0,0,0,0,0,2.9044,2.9071,2.9131,2.916,2.9183,2.935,2.9234,2.9231,2.9271,2.9259,2.9293,2.9293,2.9273,2.9402,2.9423,2.951,2.9346,2.973,2.9742,2.9753,2.988,2.9905,2.9927,0,0,0,0,0,2.9036,2.9165,2.9135,2.9157,2.9259,2.9355,2.9368,2.9343,2.9278,2.934,2.9346,2.9292,2.9489,2.9415,2.9438,2.9529,2.9725,2.9739,2.9752,2.987,2.99,2.9926,0,0,0,0,0,0,2.9144,2.9168,2.9135,2.9277,2.9316,2.9338,2.9415,2.9376,2.9433,2.9419,2.9386,2.9394,2.9526,2.9539,2.9457,2.9691,2.9596,2.9615,2.9678,2.9707,2.973,2.9724,2.9353,0,0,0,0,0,2.9185,2.9262,2.9278,2.9402,2.9423,2.9417,2.9458,2.9436,2.9474,2.9489,2.9503,2.9542,2.9613,2.966,2.9725,2.9882,2.989,2.9956,2.9979,2.9998,3.0016,3.0104,3.0135,2.9805,2.9805,2.9805,0,0,2.9269,2.9292,2.9341,2.9424,2.9451,2.9533,2.943,2.9519,2.958,2.9502,2.962,2.9633,2.9674,2.9815,2.9878,2.9831,3.0109,3.0016,3.0031,3.0038,3.0122,3.0153,3.0181,2.9815,2.9813,2.9811,0,0,2.9465,2.9489,2.9597,2.9628,2.9671,2.9667,2.9694,2.9724,2.973,2.9848,2.9793,2.9865,2.9986,3.002,3.0053,3.0269,3.0223,3.0291,3.0413,3.0499,3.0525,3.0548,3.0629,3.0658,3.0308,3.0308,3.0308,0,2.9564,2.9685,2.9657,2.9753,2.9793,2.9728,2.984,2.987,2.9932,2.9962,2.9908,3.0064,3.0086,3.0237,3.0291,3.0318,3.035,3.0287,3.0524,3.0547,3.0568,3.0644,3.0674,3.0316,3.0315,3.0314,3.0314,0,2.9807,2.9892,2.9974,3.0039,3.0088,3.0191,3.0181,3.0234,3.0209,3.0212,3.0335,3.0361,3.0433,3.0467,3.0442,3.0616,3.0586,3.0529,3.0433,3.0608,3.0679,3.0708,3.0328,3.0325,3.0323,3.0321,0,0,3.007,3.0123,3.0154,3.0186,3.0231,3.0297,3.0399,3.0471,3.0519,3.0565,3.0651,3.0759,3.0708,3.0746,3.0725,3.0801,3.0975,3.0734,3.0735,3.0781,3.1173,3.1218,3.1252,3.0945,3.095,3.0955,3.1171,0,3.027,3.0446,3.0428,3.0596,3.0677,3.062,3.0709,3.0748,3.0754,3.0824,3.083,3.0909,3.0833,3.0857,3.0929,3.0939,3.1054,3.0922,3.1026,3.103,3.102,3.1288,3.1334,3.1537,3.1198,3.1203,3.1206,0,3.0525,3.0584,3.0762,3.0802,3.0834,3.0915,3.0983,3.1049,3.1094,3.1093,3.1139,3.1106,3.1211,3.1113,3.1258,3.1169,3.1211,3.1222,3.123,3.1239,3.113,3.1308,3.16,3.1632,3.1249,3.1246,3.1243,0,3.0704,3.0828,3.0952,3.098,3.1027,3.1086,3.1109,3.1148,3.1195,3.1254,3.1284,3.1354,3.1393,3.1449,3.1437,3.1366,3.1587,3.1486,3.1591,3.1592,3.164,3.1638,3.1946,3.1664,3.1664,3.1663,3.1662,0,3.0929,3.1041,3.1034,3.111,3.1235,3.1214,3.1338,3.1353,3.139,3.147,3.1424,3.15,3.1479,3.1554,3.1545,3.1669,3.1686,3.169,3.1687,3.1696,3.1696,3.1723,3.171,3.1671,3.1669,3.1668,3.1666,0,3.115,3.1149,3.1281,3.1318,3.133,3.1421,3.1452,3.1525,3.1529,3.1631,3.1654,3.1661,3.1748,3.1742,3.1839,3.1833,3.1987,3.1966,3.1973,3.1969,3.2076,3.2067,3.2414,3.246,3.2146,3.2149,3.2152,0,3.1294,3.138,3.1428,3.1479,3.1506,3.1588,3.1637,3.1621,3.1673,3.1734,3.1801,3.1885,3.195,3.2093,3.2106,3.2182,3.2164,3.2281,3.2174,3.2182,3.2169,3.2165,3.2176,3.2301,3.2305,3.2308,3.231,0,3.1553,3.155,3.1622,3.1697,3.1758,3.1815,3.1867,3.1911,3.1901,3.1963,3.2053,3.2105,3.2207,3.2291,3.2365,3.2388,3.2349,3.2344,3.2373,3.2383,3.2385,3.2389,3.2033,3.2336,3.2333,3.2331,3.233,3.2329,3.1742,3.1817,3.1865,3.1948,3.1987,3.2038,3.2111,3.2126,3.2201,3.2285,3.227,3.2373,3.2419,3.2514,3.2545,3.2626,3.2584,3.2624,3.2635,3.2646,3.266,3.2372,3.2638,3.2638,3.2637,3.2636,3.2636,0,3.2001,3.2029,3.2107,3.2184,3.2251,3.2211,3.2268,3.2327,3.2418,3.2466,3.2533,3.2639,3.2723,3.2745,3.2826,3.2886,3.2871,3.2908,3.2904,3.2911,3.2691,3.266,3.292,3.292,3.292,3.2919,3.2919,3.2919,3.2143,3.2271,3.2274,3.2422,3.2449,3.2551,3.2588,3.2636,3.2675,3.2796,3.2866,3.2881,3.292,3.3004,3.308,3.3084,3.3117,3.3163,3.316,3.2954,3.2926,3.2899,3.2869,3.3169,3.317,3.3374,3.3376,3.3377]},{"header":{"parameterUnit":"m.s-1","parameterCategory":1,"la1":30.2991,"la2":30.254,"lo1":-89.0895,"lo2":-89.0444,"dy":0.0017,"dx":0.0017,"nx":28,"ny":28,"refTime":"2025-07-23T03:00:00:Z","depth":0,"parameterNumber":3,"parameterNumberName":"V-component_of_WINDS"},"data":[0,0,0,0,0,0,0,0,0,0,0,0,0,0,0,0,0,0,0,0,0,0,0,0,0,0,0,0,0,0,0,0,0,0,0,0,0,0,0,0,0,0,0,0,0,0,0,0,0,0,0,0,0,0,0,0,0,0,0.088,0.0882,0,0.1088,0.109,0.1092,0.1029,0.1025,0.102,0.1016,0.1238,0.1248,0.1258,0,0,0,0,0,0,0,0,0,0,0,0,0,0.0435,0.0444,0.088,0.0882,0.0885,0.1087,0.109,0.1093,0.103,0.1025,0.1019,0.1014,0.1235,0.1247,0.1259,0,0,0,0,0,0,0,0,0,0,0,0,0,0.0635,0.0447,0.0879,0.0878,0.0879,0.1087,0.109,0.1094,0.1031,0.1024,0.1018,0.1012,0.1231,0.1246,0.126,0.1484,0,0,0.1306,0.1313,0,0,0,0,0,0,0,0,0.0623,0.0651,0.0875,0.0878,0.0881,0.1025,0.1015,0.1225,0.1033,0.0974,0.1016,0.1008,0.1173,0.1193,0.1246,0.1495,0.1504,0.1307,0.1317,0.1323,0.1327,0,0,0,0,0,0,0,0.061,0.0642,0.0962,0.0879,0.0882,0.0869,0.089,0.1054,0.1108,0.0978,0.0974,0.0999,0.1174,0.1232,0.1251,0.1508,0.1307,0.132,0.133,0.1335,0.1948,0.1955,0,0,0,0,0,0,0.0593,0.0631,0.0956,0.0968,0.0733,0.0882,0.0906,0.0986,0.1106,0.1118,0.1005,0.0996,0.121,0.1234,0.1259,0.1528,0.1323,0.1337,0.1346,0.1941,0.195,0.1958,0,0,0,0,0,0,0.0584,0.0622,0.0947,0.0798,0.0839,0.0897,0.0987,0.0993,0.1052,0.1126,0.1136,0.1054,0.1205,0.1238,0.1428,0.1535,0.1344,0.1357,0.1933,0.1944,0.1954,0.2069,0,0,0,0,0,0,0.0571,0.0619,0.0704,0.0801,0.0847,0.1111,0.0994,0.1002,0.1077,0.1067,0.1175,0.1187,0.1203,0.1406,0.1443,0.1552,0.1369,0.1923,0.1938,0.195,0.2056,0.2082,0.2105,0,0,0,0,0,0.0555,0.073,0.0708,0.0748,0.0953,0.1118,0.1144,0.1157,0.1085,0.1172,0.1219,0.1183,0.1516,0.1426,0.1467,0.1582,0.1917,0.1934,0.1949,0.2045,0.2077,0.2104,0,0,0,0,0,0,0.0649,0.0743,0.072,0.0931,0.1016,0.1106,0.1216,0.1191,0.1301,0.1287,0.13,0.1325,0.152,0.157,0.1467,0.1804,0.1706,0.1732,0.1765,0.1796,0.182,0.1805,0.1381,0,0,0,0,0,0.0693,0.0816,0.0893,0.1072,0.1115,0.1158,0.1231,0.1232,0.1322,0.1359,0.142,0.1511,0.1636,0.1719,0.1838,0.2062,0.2085,0.2161,0.2186,0.2206,0.2228,0.2349,0.2384,0.2012,0.2012,0.2011,0,0,0.0788,0.0855,0.0932,0.1092,0.1159,0.1288,0.1189,0.1331,0.1427,0.1382,0.1563,0.1612,0.1714,0.1921,0.2016,0.1969,0.2335,0.2227,0.2242,0.2254,0.2369,0.2405,0.2436,0.2023,0.2021,0.2019,0,0,0.1026,0.1089,0.1243,0.1311,0.1411,0.1437,0.1474,0.1568,0.1597,0.1779,0.1747,0.1863,0.2078,0.2152,0.2217,0.248,0.2451,0.2518,0.2648,0.2765,0.2795,0.2821,0.2914,0.2947,0.254,0.254,0.2541,0,0.1132,0.1323,0.1327,0.147,0.1542,0.1502,0.166,0.1726,0.1861,0.1912,0.1857,0.2124,0.2191,0.2414,0.2477,0.2532,0.2576,0.2507,0.2789,0.2816,0.284,0.2929,0.2965,0.2548,0.2547,0.2546,0.2546,0,0.1448,0.158,0.1694,0.1821,0.1905,0.2055,0.2084,0.2169,0.2163,0.2195,0.2381,0.2459,0.2592,0.2645,0.2642,0.2868,0.2835,0.2785,0.2687,0.2883,0.2967,0.3001,0.2559,0.2556,0.2554,0.2552,0,0,0.1754,0.1878,0.192,0.1976,0.2082,0.2186,0.2334,0.246,0.2533,0.2627,0.2752,0.2933,0.2886,0.2961,0.2965,0.3068,0.327,0.3005,0.3007,0.3051,0.3523,0.3561,0.36,0.325,0.3257,0.3262,0.3514,0,0.2001,0.2257,0.2265,0.2501,0.2623,0.2585,0.2714,0.2794,0.2828,0.2939,0.2977,0.3105,0.3033,0.3078,0.3178,0.3224,0.3365,0.3206,0.3369,0.3374,0.3345,0.3644,0.3685,0.392,0.3547,0.3553,0.3557,0,0.2324,0.2423,0.267,0.2756,0.2808,0.2923,0.3039,0.3144,0.3234,0.3251,0.3332,0.3321,0.3473,0.3368,0.3579,0.3471,0.3537,0.357,0.3579,0.3596,0.3478,0.367,0.3995,0.403,0.3609,0.3605,0.3601,0,0.2522,0.2718,0.2891,0.294,0.3045,0.3126,0.3174,0.3257,0.3332,0.3433,0.3482,0.3602,0.3668,0.3761,0.3782,0.3704,0.3993,0.389,0.4013,0.4012,0.4077,0.4073,0.4418,0.4119,0.4118,0.4117,0.4117,0,0.2797,0.295,0.298,0.3087,0.3257,0.3264,0.3433,0.3475,0.3548,0.3663,0.3639,0.3748,0.3768,0.3882,0.39,0.4071,0.4102,0.4121,0.4124,0.4124,0.4121,0.4169,0.4153,0.4127,0.4125,0.4123,0.4121,0,0.3049,0.3075,0.326,0.3342,0.3366,0.3488,0.3559,0.3661,0.369,0.3836,0.3871,0.3919,0.4051,0.4081,0.424,0.4251,0.4454,0.4441,0.4423,0.4423,0.4543,0.4532,0.4932,0.4985,0.465,0.4654,0.4656,0,0.3223,0.3339,0.3432,0.3505,0.3555,0.3675,0.375,0.3761,0.384,0.3949,0.4039,0.4167,0.4271,0.4484,0.4535,0.4655,0.4646,0.4777,0.4664,0.4659,0.4648,0.4641,0.4652,0.48,0.4803,0.4806,0.4809,0,0.353,0.3536,0.3643,0.3755,0.3844,0.3934,0.4019,0.4082,0.4104,0.4195,0.4328,0.4408,0.4567,0.4696,0.4815,0.4867,0.4843,0.4843,0.4878,0.488,0.4864,0.4874,0.4483,0.4835,0.4832,0.483,0.4829,0.4828,0.3749,0.3849,0.3929,0.4049,0.4113,0.4192,0.4292,0.4332,0.4442,0.457,0.457,0.4716,0.4801,0.4959,0.5017,0.5131,0.5091,0.5142,0.5155,0.5167,0.5178,0.4844,0.5154,0.5153,0.5152,0.5152,0.5151,0,0.4054,0.4102,0.4212,0.433,0.4425,0.4389,0.4481,0.4563,0.469,0.477,0.487,0.5023,0.5146,0.5204,0.5327,0.5407,0.5399,0.5439,0.5434,0.5446,0.5207,0.5165,0.5444,0.5444,0.5443,0.5443,0.5443,0.5443,0.4224,0.4392,0.4407,0.4606,0.4654,0.4793,0.4849,0.4922,0.4985,0.5155,0.5256,0.5292,0.5363,0.549,0.5602,0.5616,0.5662,0.5708,0.5717,0.5493,0.5463,0.5435,0.5395,0.5718,0.5718,0.5946,0.5948,0.595]}]]